Flag for Germany Weather past 2 weeks in Mühlacker, Baden-Württemberg, Germany

Now
34 °F

Light rain. Partly cloudy.


Feels Like: 30 °F
Forecast: 33 / 37 °F
Wind: 5 mph from Southwest

Location: Stuttgart-Echterdingen

Current Time: Jan 26, 2015 at 10:13:09 PM

Latest Report: Jan 26, 2015 at 9:50 PM


Visibility: 3 mi

Pressure: 30.07 "Hg

Humidity: 93%

Dew point: 32 °F

Location of MühlackerLocation

Historic Weather in Mühlacker — Graph

°F

Mühlacker temperature yesterday

Maximum temperature yesterday: 36 °F (at 1:20 PM)
Minimum temperature yesterday: 32 °F (at 12:20 AM)
Average temperature yesterday: 34 °F

Past Weeks' High & Low Weather Summary

 TemperatureHumidityPressure
High57 °F (Jan 13, 1:50 PM)100% (Jan 15, 2:20 AM)30.39 "Hg (Jan 15, 2:20 AM)
Low27 °F (Jan 18, 6:20 AM)28% (Jan 13, 12:50 PM)29.68 "Hg (Jan 16, 2:20 PM)
Average36 °F83%30.00 "Hg
* Reported Jan 11 8:20 PM — Jan 26 8:50 PM, Mühlacker, Weather by CustomWeather, © 2014

Note: Actual official high and low records may vary slightly from our data, if they occured in-between our weather recording intervals... More about our weather records

Advertising

Mühlacker weather history for previous 24 hours

 ConditionsComfort  
Time TempWeatherWind HumidityBarometerVisibility
8:50 PM
Jan 26
34 °FLight snow. Partly cloudy.6 mph93%30.07 "Hg4 mi
8:20 PM32 °FSnow. Ice fog.7 mph100%30.07 "Hg2 mi
7:50 PM32 °FSnow. Ice fog.7 mph100%30.07 "Hg2 mi
7:20 PM32 °FSnow. Ice fog.7 mph100%30.09 "Hg2 mi
6:50 PM32 °FLight snow. Ice fog.7 mph100%30.09 "Hg2 mi
6:20 PM32 °FSnow. Ice fog.7 mph100%30.09 "Hg2 mi
5:50 PM32 °FSnow. Ice fog.8 mph93%30.12 "Hg1 mi
5:20 PM32 °FLight snow. Ice fog.7 mph93%30.12 "Hg2 mi
4:50 PM34 °FLight snow. Broken clouds.9 mph87%30.12 "Hg4 mi
4:20 PM34 °FLight rain. Partly sunny.8 mph87%30.12 "Hg4 mi
3:50 PM34 °FBroken clouds.9 mph87%30.15 "HgN/A
3:20 PM34 °FLight rain. Partly sunny.7 mph87%30.15 "HgN/A
2:50 PM34 °FPartly sunny.8 mph87%30.15 "HgN/A
2:20 PM34 °FLight snow. Partly sunny.8 mph87%30.18 "HgN/A
1:50 PM34 °FLight snow. Partly sunny.8 mph87%30.18 "HgN/A
1:20 PM32 °FLight snow. Broken clouds.9 mph93%30.21 "Hg6 mi
12:50 PM32 °FLight snow. Ice fog.8 mph93%30.21 "Hg2 mi
12:20 PM32 °FLight snow. Ice fog.7 mph93%30.24 "Hg2 mi
11:50 AM32 °FSnow. Ice fog.7 mph93%30.24 "Hg1 mi
11:20 AM32 °FLight snow. Ice fog.8 mph93%30.27 "Hg2 mi
10:50 AM32 °FLight snow. Ice fog.7 mph93%30.27 "Hg3 mi
10:20 AM32 °FLight snow. Ice fog.6 mph93%30.27 "Hg2 mi
9:50 AM32 °FSnow. Partly sunny.5 mph93%30.27 "Hg1 mi
9:20 AM32 °FSnow. Broken clouds.5 mph93%30.27 "Hg1 mi
8:50 AM32 °FSnow. Partly sunny.6 mph93%30.30 "Hg1 mi
8:20 AM32 °FSnow. Partly sunny.6 mph93%30.30 "Hg2 mi
7:50 AM32 °FLight snow. Passing clouds.6 mph93%30.30 "Hg4 mi
7:20 AM32 °FLight snow. Passing clouds.6 mph93%30.30 "Hg5 mi
6:50 AM32 °FLight snow. Passing clouds.5 mph93%30.30 "Hg5 mi
6:20 AM34 °FLight snow. Passing clouds.6 mph87%30.30 "HgN/A
5:50 AM34 °FPassing clouds.3 mph87%30.30 "HgN/A
5:20 AM34 °FLight snow. Partly cloudy.5 mph87%30.30 "HgN/A
4:20 AM34 °FPassing clouds.2 mph87%30.30 "HgN/A
3:50 AM34 °FPassing clouds.1 mph87%30.33 "HgN/A
3:20 AM34 °FPassing clouds.2 mph87%30.33 "HgN/A
2:50 AM32 °FPartly cloudy.2 mph93%30.33 "HgN/A
2:20 AM32 °FPartly cloudy.5 mph93%30.33 "HgN/A
1:50 AM34 °FPartly cloudy.5 mph87%30.33 "HgN/A
1:20 AM34 °FPassing clouds.5 mph87%30.33 "HgN/A
12:50 AM34 °FPassing clouds.2 mph87%30.33 "HgN/A
12:20 AM34 °FPassing clouds.3 mph87%30.36 "HgN/A
11:50 PM
Jan 25
34 °FPartly cloudy.2 mph87%30.36 "HgN/A
11:20 PM34 °FPartly cloudy.3 mph87%30.36 "HgN/A
10:20 PM34 °FPassing clouds.5 mph87%30.36 "HgN/A
Weather by CustomWeather, © 2014

See weather overviewHow to use our weather pages